Tracking 25709 objects as of 23-May-2022
HD Live streaming from Space Station
objects crossing your sky now

CZ-2 DEB

Track CZ-2 DEB now!
10-day predictions


NORAD ID: 38661
Int'l Code: 2012-029C
Perigee: 1,099.6 km
Apogee: 1,289.4 km
Inclination: 100.2 °
Period: 109.1 minutes
Semi major axis: 7565 km
RCS: 0.0137 m2 (small)
Launch date: May 29, 2012
Source: People's Republic of China (PRC)
Launch site: Taiyaun Space Center, China (TSC)

Note: This is SATELLITE DEBRIS
aabbcc
Your satellite tracking list
Your tracking list is empty




NASA's NSSDC Master Catalog

Two Line Element Set (TLE):
1 38661U 12029C   22140.46521144  .00000153  00000-0  47129-3 0  9999
2 38661 100.2142 223.8647 0125451 149.9050 210.9349 13.19311413477209
Source of the keplerian elements: AFSPC